GFSGBSN_sfc_thetae_132.txt.gz
Theta_e
321 321 320 320 320 320 320 319 319 318 318 317 316 316 316 316 316 316 315 315 316 317 316 315 315 315 312 305 304 315 333 330 319 313 307 305 306 306 303 306 309 307 309 312 313 313 313
319 319 319 319 319 319 319 319 318 318 317 316 316 316 315 316 316 317 316 315 315 316 315 316 315 315 309 299 315 316 315 320 317 312 307 307 307 309 306 306 307 310 310 312 314 314 315
318 318 318 318 318 318 318 318 317 317 316 316 316 316 316 316 316 316 316 315 315 316 316 315 315 313 308 305 315 314 317 319 320 315 306 308 311 307 308 305 310 310 306 311 314 315 313
316 317 317 318 318 317 317 316 316 316 316 315 315 315 315 315 315 315 316 315 315 314 315 316 315 311 304 315 318 314 314 313 319 316 310 311 311 309 306 309 307 305 308 304 311 313 314
314 315 315 316 317 317 316 316 316 316 316 316 316 315 315 314 314 315 315 314 314 316 317 315 310 308 304 320 311 315 315 310 314 312 311 311 310 306 306 301 300 303 300 302 306 313 312
312 313 313 315 316 315 315 315 315 316 315 315 315 315 314 314 313 314 314 314 315 313 313 313 311 304 308 307 312 313 315 316 310 308 306 306 305 302 301 299 293 297 300 304 305 309 311
311 311 311 312 313 314 313 314 315 315 315 315 315 314 314 314 313 313 310 311 306 305 307 306 306 305 308 312 314 311 316 314 309 306 299 303 298 296 299 300 300 304 303 303 307 308 305
311 311 311 311 310 311 312 313 313 314 314 314 314 314 314 314 313 313 310 305 308 308 302 310 310 310 312 314 305 309 316 308 303 299 302 299 295 300 302 302 300 301 301 300 304 308 303
308 309 310 310 311 311 311 311 312 313 313 313 313 313 313 313 312 310 307 307 314 313 302 307 311 309 310 312 305 308 311 308 302 299 298 296 298 302 301 300 300 299 298 299 299 303 304
308 308 309 310 310 311 311 311 311 312 312 312 312 312 313 312 307 314 311 317 316 315 297 302 306 308 310 310 305 312 312 306 302 297 299 299 302 300 300 299 300 296 302 301 301 299 293
308 308 309 309 310 310 310 311 311 311 312 312 312 312 312 311 308 305 313 318 318 311 286 303 305 313 310 306 307 306 311 307 300 299 300 297 299 298 298 299 302 299 303 302 301 299 298
307 307 309 309 310 310 310 310 311 311 311 311 312 312 311 309 309 311 315 318 311 295 287 300 305 302 303 305 306 306 305 308 307 301 301 300 305 303 301 303 303 304 302 301 301 299 292
307 308 309 309 309 310 311 311 311 311 311 311 311 311 309 310 307 318 316 309 292 289 302 297 298 302 301 300 303 302 300 299 297 293 294 299 300 303 304 300 303 302 300 291 289 290 289
308 308 308 309 309 310 311 311 311 310 309 309 308 307 310 311 313 314 311 298 289 296 299 305 301 301 298 300 302 301 299 296 302 300 296 293 292 300 305 302 299 300 299 292 286 288 291
308 308 308 309 309 309 310 310 310 310 309 308 307 312 316 317 317 315 303 289 292 298 302 302 302 297 298 300 301 300 298 298 301 302 296 295 295 304 304 305 304 300 296 302 295 296 293
308 308 309 308 308 309 309 309 310 310 309 307 307 308 311 319 320 311 299 293 298 302 303 301 296 299 296 297 298 298 297 302 302 305 307 301 294 302 303 305 305 302 304 295 297 289 287
307 308 308 308 308 308 308 308 309 309 308 307 308 306 318 321 318 306 295 296 300 305 304 299 299 300 299 297 299 297 298 301 304 304 307 304 302 298 303 300 299 300 299 302 300 298 292
307 307 308 308 308 308 307 307 308 308 306 306 306 299 319 319 305 305 299 302 301 303 305 302 303 301 301 302 299 298 297 301 305 306 301 306 303 297 298 305 306 304 301 303 297 295 298
307 307 308 308 308 308 307 307 307 307 306 303 300 302 320 317 297 299 304 302 303 301 301 301 300 303 305 302 298 301 301 306 306 305 303 307 302 296 296 300 304 301 304 304 304 304 297
306 307 307 308 308 308 307 307 307 306 306 304 302 299 311 311 309 303 299 298 299 305 302 303 302 303 301 302 304 300 302 304 306 307 312 310 303 300 294 297 302 298 302 304 302 298 297
304 305 306 307 307 307 308 308 307 306 306 305 305 301 303 292 298 302 300 297 298 297 303 304 301 300 300 297 302 300 303 303 305 306 307 308 298 301 302 301 302 302 300 300 299 300 296
304 305 306 306 307 307 308 308 307 306 305 306 298 298 300 297 302 302 298 294 298 298 298 298 297 300 301 298 303 301 302 303 302 305 305 308 300 301 297 301 299 297 300 301 300 301 300
305 305 306 306 306 307 307 307 307 307 306 299 302 304 300 297 299 299 299 297 300 302 303 304 302 300 302 304 307 308 309 310 307 303 304 304 298 297 293 299 297 293 298 299 299 300 300
304 305 305 306 306 306 307 307 307 307 307 302 301 304 296 292 297 296 299 298 301 301 300 303 305 302 305 311 312 312 309 309 307 306 309 303 297 298 294 296 286 297 302 301 299 300 301
302 303 304 305 305 306 307 307 307 307 308 302 303 303 297 292 297 295 299 298 301 303 300 302 305 309 312 308 300 298 299 299 303 306 306 309 304 299 293 292 295 297 299 298 297 297 304
302 302 302 304 305 306 307 307 307 307 307 304 303 310 303 295 296 300 299 299 296 298 302 303 309 313 311 304 299 293 291 295 294 298 305 304 307 301 296 290 287 298 303 305 304 295 306
302 302 302 303 304 305 306 307 308 308 308 306 304 313 305 297 302 301 298 298 301 299 301 304 304 304 310 301 296 294 293 299 293 293 295 297 300 295 293 293 295 303 304 303 291 296 306
302 302 302 303 304 305 306 307 308 307 308 306 303 314 305 299 300 303 304 299 301 300 294 302 304 304 303 300 296 295 295 297 296 298 296 296 295 295 297 292 288 306 302 298 304 308 306
302 301 302 303 305 305 305 306 308 307 307 307 301 309 315 303 301 307 307 309 307 304 300 307 307 306 306 302 301 298 296 298 299 293 302 295 299 298 299 298 308 309 307 309 308 304 305

GFSGBSN_sfc_thetae_138.txt.gz
Theta_e
315 316 317 318 317 317 318 318 317 317 316 316 315 315 315 315 316 316 315 316 315 316 315 316 317 317 309 300 299 310 321 329 320 312 305 301 296 295 294 296 298 296 301 304 305 305 304
313 315 315 315 315 316 317 317 316 316 316 316 316 316 315 315 315 315 315 314 314 315 315 315 316 316 305 295 310 312 312 319 315 309 305 300 296 297 295 295 297 299 301 303 304 303 304
313 313 313 313 314 314 314 314 314 315 316 316 316 315 315 315 315 314 314 313 313 314 315 315 316 313 303 299 311 312 310 312 312 311 303 304 301 297 297 295 299 300 296 300 303 302 302
311 311 312 312 312 311 311 311 312 313 315 315 315 315 314 314 314 314 313 314 314 314 315 316 317 311 299 310 311 309 310 309 313 313 305 305 302 297 294 297 297 295 294 292 301 303 308
311 310 310 311 312 312 311 311 311 311 313 314 314 314 313 314 314 314 313 312 313 313 315 316 311 305 296 314 309 311 311 307 310 310 308 308 301 295 295 291 288 290 288 290 295 304 307
310 310 310 309 310 311 310 310 311 311 311 312 313 313 312 312 313 313 313 312 312 312 311 313 309 300 303 302 309 310 311 310 308 307 304 301 294 290 288 287 284 286 288 290 293 300 303
309 309 308 309 309 310 309 310 310 311 312 311 313 312 311 312 313 312 310 303 298 301 304 300 300 301 304 310 313 307 309 307 307 304 294 297 288 287 289 290 292 292 291 291 298 303 302
308 308 308 309 309 310 311 312 313 313 313 312 312 312 312 313 313 312 308 299 299 300 294 305 305 304 307 309 303 306 309 301 299 294 294 289 286 292 295 295 294 293 290 290 296 305 303
308 308 308 308 309 310 311 311 312 313 312 312 312 312 312 312 312 307 302 303 308 305 294 300 305 303 304 308 303 305 305 302 297 292 292 287 290 296 295 294 293 292 290 290 296 301 302
309 308 308 309 309 309 309 309 310 311 312 311 311 311 311 311 303 301 298 305 312 305 289 294 300 303 307 308 302 311 307 302 296 292 292 290 295 294 293 293 294 289 295 295 298 295 291
308 308 309 309 309 309 309 309 309 310 310 310 310 310 311 310 302 299 301 307 310 303 280 299 302 312 308 303 303 304 308 303 295 295 293 291 293 293 292 294 296 292 296 294 296 294 291
308 308 308 309 309 309 308 308 309 309 308 308 309 309 309 304 304 303 306 307 309 291 282 296 303 300 300 302 303 302 304 305 301 295 295 294 297 296 295 297 297 298 293 297 295 293 287
307 307 308 309 309 309 308 308 308 308 308 308 308 308 306 305 296 303 307 304 291 285 297 296 297 299 298 298 299 299 298 296 289 286 286 293 294 296 298 292 295 295 289 285 285 284 284
306 307 308 308 308 308 308 308 308 308 308 308 307 306 304 304 305 304 304 297 285 292 294 302 301 298 294 297 297 298 295 292 295 291 287 285 283 292 297 293 289 289 292 285 280 281 283
305 307 307 307 308 308 308 307 307 307 307 306 305 298 300 303 305 303 300 289 288 293 299 297 298 293 291 296 296 295 292 293 295 294 287 286 287 296 298 298 294 290 288 293 288 288 283
304 305 305 307 307 308 307 307 308 308 307 306 298 295 299 306 307 302 298 291 292 300 301 299 293 297 289 292 292 291 291 295 295 296 295 291 285 296 298 297 295 293 296 290 288 280 279
304 304 305 306 307 307 307 307 308 308 306 305 293 292 305 310 311 303 290 293 296 301 301 297 295 296 295 294 293 291 292 295 297 296 295 291 292 293 297 292 290 291 290 290 291 290 284
304 305 306 306 307 307 307 307 308 307 305 301 294 286 308 314 299 300 294 298 301 301 304 300 299 298 296 297 297 292 292 296 299 298 292 296 292 289 292 298 297 295 292 291 287 288 291
303 304 305 306 306 306 306 307 307 307 306 299 293 294 307 302 287 288 292 294 299 300 300 299 296 300 302 298 294 299 296 300 299 297 293 296 292 286 289 293 297 294 297 294 293 292 291
303 303 304 305 306 306 306 307 307 307 306 300 296 291 296 298 297 291 290 292 294 301 299 301 300 302 299 297 300 298 299 305 302 299 310 305 293 289 286 289 295 294 297 297 292 287 291
303 303 303 304 305 306 306 307 307 306 306 297 294 288 292 284 289 291 294 293 292 294 300 300 299 299 297 294 296 297 301 301 302 307 302 298 291 295 299 300 299 297 297 296 293 294 289
303 304 303 303 304 305 306 306 307 307 305 292 286 288 292 289 291 292 294 292 291 294 296 296 296 300 298 296 298 297 299 298 297 300 299 298 292 295 295 300 299 297 298 297 296 297 296
302 303 302 303 303 304 305 306 307 307 303 291 291 295 293 292 290 290 291 292 294 296 298 300 301 300 299 300 305 304 305 304 302 298 297 296 294 290 287 298 296 291 296 295 297 297 295
302 302 303 303 303 303 304 306 307 307 306 296 293 296 291 288 290 290 292 294 295 295 295 300 302 300 305 309 310 307 305 305 305 301 300 294 292 291 288 289 283 295 301 300 297 298 298
302 303 303 302 303 303 304 304 306 307 307 298 296 297 292 287 291 292 293 293 296 295 299 300 304 308 311 306 299 296 293 298 300 303 298 300 295 289 287 285 290 295 298 297 295 293 298
303 303 304 304 303 304 304 305 306 307 307 301 298 302 297 291 291 295 292 296 293 291 294 302 307 310 308 302 294 286 285 291 293 297 304 300 298 291 287 285 281 292 299 303 301 288 299
302 303 304 304 304 304 305 304 305 307 307 303 296 302 298 292 295 295 292 294 298 293 292 297 298 302 307 296 290 288 288 297 290 291 291 292 292 288 288 283 291 300 304 305 288 288 299
302 302 303 303 303 304 305 305 304 306 307 302 297 299 297 295 295 298 300 296 299 296 290 295 297 300 298 293 292 292 292 295 294 295 291 290 288 286 289 286 283 304 302 294 296 297 298
302 302 302 302 303 303 304 305 305 306 307 306 291 297 301 297 295 302 302 304 305 304 298 299 298 300 300 295 294 295 294 294 291 288 299 290 292 289 290 291 299 302 299 299 300 297 296

GFSGBSN_sfc_thetae_141.txt.gz
Theta_e
313 313 313 313 313 314 314 314 315 315 316 315 316 316 315 315 315 315 314 314 315 314 314 314 315 316 310 300 298 310 320 319 316 314 306 299 295 295 294 296 296 295 299 302 303 304 304
311 312 312 313 312 312 312 311 312 313 314 315 316 315 314 314 314 315 313 313 313 313 314 314 314 316 305 294 308 310 311 316 314 309 303 298 296 297 295 294 296 297 299 301 302 302 302
311 311 311 312 312 311 310 311 311 311 312 313 314 314 314 314 314 314 314 311 313 313 313 314 315 312 305 299 309 310 308 307 312 308 302 302 299 298 295 294 297 298 294 298 299 301 300
311 310 310 310 310 310 309 309 310 310 311 312 312 313 313 313 313 314 314 313 311 312 313 314 316 311 299 310 309 307 308 307 310 312 306 304 300 296 292 295 295 294 292 290 299 301 302
309 309 309 309 308 310 309 309 310 310 310 311 312 312 312 312 312 313 313 313 313 312 313 314 310 306 296 311 307 310 309 305 308 310 308 307 299 294 294 289 287 290 287 288 293 299 303
309 309 309 309 309 310 311 311 312 313 313 313 313 313 312 312 312 313 312 312 312 311 309 311 310 299 301 301 308 311 310 309 307 306 302 299 292 288 286 286 284 286 287 288 292 296 299
308 309 309 308 308 309 309 309 310 311 312 312 312 312 312 312 312 312 310 302 294 299 303 298 300 299 303 309 313 306 309 307 306 301 293 295 285 285 288 289 291 290 289 289 293 297 301
308 308 308 309 309 308 309 309 309 309 309 310 311 311 311 311 311 311 306 298 299 301 293 302 303 302 306 307 301 307 308 300 299 294 294 289 285 289 292 292 291 290 288 288 293 302 300
308 308 308 309 308 308 308 309 309 309 309 309 309 310 310 311 310 306 301 301 307 306 295 297 302 301 303 305 301 302 304 300 298 294 290 287 290 294 292 291 290 289 288 288 292 299 300
308 308 308 308 309 309 308 308 308 308 309 309 309 309 309 309 302 301 297 303 306 306 289 292 297 302 305 305 299 309 306 301 295 292 292 288 293 292 290 290 291 286 293 293 293 293 287
307 308 307 309 309 309 308 308 308 309 309 308 308 308 308 307 301 297 299 302 307 303 279 297 299 309 306 302 303 304 306 301 293 292 291 288 290 289 289 291 294 290 295 293 292 290 290
306 307 307 308 307 308 308 308 308 309 308 308 308 308 308 302 302 301 303 305 306 290 280 296 301 298 300 301 302 304 300 302 300 294 292 291 295 293 292 295 296 296 291 292 290 287 283
305 306 306 306 307 307 307 307 308 308 308 308 308 308 305 304 295 300 302 301 290 283 296 294 296 299 297 297 298 298 295 293 289 285 285 291 291 294 296 291 292 291 287 281 280 281 281
305 305 305 307 307 307 307 307 307 308 308 307 306 306 301 303 303 302 304 296 283 290 292 300 299 299 294 296 296 296 294 291 293 290 285 284 282 291 295 291 287 288 288 284 279 279 281
305 305 305 306 307 307 307 307 307 307 307 306 305 296 296 300 303 300 298 287 286 291 297 294 295 294 291 295 295 294 293 293 295 292 285 284 285 293 295 294 293 289 285 291 286 289 283
304 304 305 306 307 307 307 307 307 307 307 305 297 292 297 303 305 299 296 289 291 299 299 298 289 295 288 292 291 291 290 295 295 296 292 289 283 292 294 294 292 293 294 287 288 281 278
304 303 305 306 306 307 307 307 307 307 306 305 292 290 305 308 305 299 288 292 295 301 301 296 293 295 294 292 292 289 291 293 297 294 293 289 288 289 295 289 288 288 287 288 289 285 280
304 304 304 305 306 306 306 307 307 307 305 301 292 289 306 310 294 294 289 290 297 299 302 299 299 297 295 297 296 290 290 295 298 294 290 292 288 285 290 295 295 291 290 290 283 284 287
303 304 304 304 305 305 306 306 307 307 305 299 292 294 306 303 286 288 292 293 296 296 295 298 297 298 301 298 293 297 293 298 297 295 291 294 288 283 286 291 295 293 292 291 291 290 287
303 304 303 303 304 305 305 306 306 306 305 297 294 288 291 298 295 291 289 290 293 299 298 299 297 300 298 296 299 295 298 302 298 296 307 301 290 287 283 287 293 292 295 295 293 285 289
303 303 303 303 304 304 304 305 306 306 306 293 288 287 291 283 287 289 291 293 291 291 299 300 297 298 297 293 295 294 299 299 300 307 299 296 289 292 296 298 298 296 295 294 292 294 289
303 303 303 303 303 303 304 306 306 306 304 290 284 288 291 288 291 290 292 291 291 294 294 294 294 298 299 295 296 295 297 297 295 300 297 296 290 293 293 297 297 294 296 295 295 295 296
302 302 303 304 303 303 303 305 305 306 303 291 290 295 292 290 290 289 289 291 292 295 296 299 298 297 296 299 303 303 302 301 300 296 295 294 291 287 286 296 294 289 294 292 294 295 296
302 302 303 304 304 303 304 303 304 306 306 299 295 295 291 286 289 289 291 292 292 295 293 297 301 300 304 309 307 304 302 303 303 299 300 293 290 288 286 288 282 293 299 298 294 295 297
302 302 303 304 303 303 304 305 304 306 306 301 299 296 292 287 289 291 292 292 295 296 294 299 302 307 310 306 299 293 292 296 299 302 298 296 291 286 283 282 288 293 297 297 293 291 297
302 302 303 303 303 303 303 304 305 305 306 303 295 299 296 290 289 293 291 293 290 291 291 297 305 305 308 301 295 286 285 293 293 297 301 298 295 289 284 282 280 290 298 300 298 286 298
302 302 302 303 303 303 303 304 305 305 306 303 295 300 293 290 293 295 290 292 295 295 290 293 297 300 304 295 290 289 289 297 291 291 290 290 289 286 284 281 289 298 303 304 286 288 298
301 302 302 302 302 303 303 304 304 305 306 302 297 295 292 293 294 295 298 294 295 297 290 294 296 299 298 292 290 292 292 295 295 295 292 289 286 282 285 283 283 303 301 293 295 297 297
300 301 302 302 302 303 303 304 305 306 306 305 295 295 300 295 293 300 300 302 302 302 299 298 297 298 298 295 295 296 294 295 294 288 297 290 291 288 288 288 295 298 296 297 298 295 294

GFSGBSN_sfc_thetae_144.txt.gz
Theta_e
312 312 312 312 311 312 310 310 311 311 311 312 313 314 315 315 315 315 315 314 312 313 313 313 314 315 311 300 299 309 319 317 317 312 308 297 296 295 294 296 296 294 297 301 303 302 303
311 311 310 311 311 310 311 309 309 310 310 312 311 312 313 313 314 314 314 314 313 313 312 313 314 315 306 296 310 309 309 315 312 309 306 297 296 298 295 296 295 297 297 300 300 301 302
310 311 310 310 309 310 310 309 310 310 310 311 311 312 312 313 313 313 313 313 312 311 311 313 314 312 303 300 309 309 308 304 311 308 302 300 297 298 296 293 296 296 293 297 298 299 299
310 310 310 310 310 310 310 310 312 312 314 314 314 313 312 312 313 312 312 312 312 313 312 313 314 309 299 309 310 308 308 306 310 310 304 304 299 295 295 296 295 293 291 291 298 299 300
309 310 310 310 309 309 309 309 310 310 311 312 313 312 312 312 312 312 312 312 312 313 313 312 308 306 298 311 305 309 308 305 309 310 307 307 298 293 292 289 287 289 285 287 293 298 300
309 309 309 309 309 308 308 308 308 308 309 309 310 310 311 311 311 311 312 311 311 310 309 310 309 299 303 301 306 309 308 308 306 305 301 296 291 287 285 286 283 284 286 287 291 294 297
309 308 308 308 308 308 308 308 308 308 308 308 308 309 309 310 310 310 307 301 294 295 299 295 297 297 303 307 311 306 307 306 304 299 290 292 284 285 287 287 289 289 288 288 291 296 296
309 309 308 308 309 308 308 308 308 308 308 308 308 308 308 309 309 309 304 295 298 300 293 300 301 301 304 306 300 304 308 300 297 292 293 287 282 287 291 291 290 289 287 286 291 297 297
307 308 308 307 308 307 307 308 308 309 309 309 309 308 308 308 308 305 301 299 304 303 294 298 300 299 302 304 298 301 304 300 297 293 288 285 288 291 290 288 288 286 286 287 289 296 299
307 307 307 307 307 307 307 307 307 308 308 309 309 308 308 308 301 299 294 302 303 304 289 291 294 299 302 303 297 307 305 302 297 293 290 288 291 290 288 288 289 284 291 291 292 290 286
306 306 306 305 307 307 308 307 307 308 309 308 308 309 307 307 299 295 297 301 306 303 278 295 296 307 303 299 302 302 306 299 293 292 291 288 288 288 286 288 291 288 293 291 291 288 287
307 306 306 306 307 308 307 307 308 308 308 308 308 307 307 303 301 299 300 301 304 289 279 294 299 297 297 300 301 303 300 300 298 292 292 290 293 291 289 293 294 294 291 290 287 285 280
305 305 305 306 307 308 307 307 307 308 308 308 308 307 304 304 294 298 300 298 288 281 294 289 294 297 297 296 297 297 293 291 287 283 283 288 289 291 294 289 291 290 284 278 277 278 278
305 304 305 305 306 307 307 307 307 307 308 307 305 305 301 301 301 301 300 295 281 288 291 296 294 297 293 295 295 294 291 288 292 289 285 282 281 289 293 290 286 286 285 279 276 277 280
305 305 305 305 306 306 306 306 307 307 307 305 304 295 303 302 302 301 297 284 284 291 295 292 292 292 291 294 293 292 290 289 292 290 285 284 284 292 294 292 291 286 283 288 283 284 281
304 304 305 305 305 306 306 306 307 307 307 305 296 291 302 307 304 299 295 288 291 298 298 296 286 295 289 291 290 290 290 294 294 294 291 287 283 290 292 293 290 290 291 284 283 278 277
304 304 305 304 304 305 306 306 307 307 306 304 292 293 303 308 306 297 286 288 294 299 299 293 288 293 293 292 290 289 290 293 297 294 294 287 286 287 290 287 286 288 286 286 286 283 279
304 304 304 304 304 304 304 305 306 306 305 300 293 292 305 307 293 293 289 291 294 297 300 297 297 297 295 297 293 289 289 293 297 294 289 289 286 283 287 292 292 290 289 288 282 283 285
304 304 304 304 303 303 303 305 306 306 305 297 292 291 302 300 286 288 292 292 296 296 297 295 295 299 299 296 292 295 293 296 295 293 291 291 284 281 285 290 294 288 289 289 289 289 286
303 303 303 305 303 304 304 305 305 305 305 293 288 282 287 290 291 289 289 290 291 298 298 299 296 299 298 295 298 294 296 301 295 294 305 298 287 285 282 286 291 291 292 292 290 283 287
303 303 303 304 305 304 303 304 305 305 305 291 286 283 290 284 286 288 291 292 290 291 296 298 296 297 296 292 293 292 297 297 300 305 296 291 285 291 293 296 295 293 293 293 291 290 288
303 303 303 303 305 303 304 305 305 305 305 289 285 288 291 288 291 290 291 289 289 291 293 293 294 296 297 293 294 292 295 295 295 298 293 293 289 291 292 296 296 292 294 294 294 295 295
303 303 303 303 304 304 305 305 304 305 305 295 294 294 292 288 287 287 288 290 291 293 295 297 297 296 295 298 299 298 298 299 298 295 293 292 290 286 285 293 293 290 292 293 293 294 296
302 302 302 303 303 303 304 305 305 305 305 300 296 294 290 285 287 287 289 291 291 292 292 295 298 298 304 309 305 300 297 300 300 296 297 290 288 287 285 287 281 291 298 298 294 295 298
302 302 302 302 303 302 303 304 305 306 306 300 299 296 292 285 287 288 289 290 293 295 294 294 300 303 305 305 296 290 290 293 297 298 297 294 289 285 283 282 288 292 295 295 293 291 297
302 302 302 302 302 303 303 304 304 305 306 301 295 295 295 288 285 291 289 290 291 290 293 295 299 304 306 299 294 287 286 291 290 293 298 296 293 287 282 282 280 288 297 299 297 287 297
301 301 302 302 302 303 304 305 305 305 306 300 295 297 295 289 289 291 287 290 295 293 291 293 296 298 304 295 291 289 288 295 288 289 289 288 287 284 282 279 287 295 300 302 288 288 297
301 301 301 301 302 303 304 305 305 305 306 300 298 293 292 291 291 293 297 294 294 295 291 294 295 297 297 289 291 293 290 294 291 293 291 288 284 282 283 281 281 300 299 292 293 295 296
301 301 301 301 301 302 304 305 306 306 306 305 295 297 300 293 291 295 298 299 299 299 297 298 296 297 297 295 294 295 294 295 292 286 295 288 290 287 287 287 293 296 295 297 299 295 291

GFSGBSN_sfc_thetae_147.txt.gz
Theta_e
311 311 311 310 310 310 310 310 310 310 310 310 311 311 311 312 313 314 314 313 313 313 312 312 313 313 310 302 302 313 319 319 320 316 310 303 301 302 301 303 304 302 304 305 307 307 306
311 311 311 311 310 310 310 311 311 313 313 313 313 313 312 312 313 313 312 312 312 313 312 312 313 313 305 294 311 313 311 317 316 312 309 304 302 305 303 304 303 305 305 305 306 307 306
310 310 310 310 310 309 309 310 310 310 311 312 312 313 312 313 313 313 313 312 312 312 312 312 313 310 302 299 311 312 311 309 314 312 306 306 305 304 305 302 305 304 302 303 304 305 306
310 310 310 310 310 309 309 309 309 309 309 309 310 311 310 310 311 312 312 313 312 312 313 313 313 309 297 310 313 310 311 310 311 314 308 308 304 304 304 305 303 300 302 297 304 305 305
309 309 309 309 309 309 309 309 309 308 308 308 308 309 309 309 309 310 311 311 311 312 312 312 307 304 295 313 307 311 312 306 311 312 309 308 305 302 300 298 297 299 292 296 299 305 305
309 309 309 309 308 308 309 308 308 308 308 308 308 308 309 308 308 309 310 309 309 309 309 309 307 299 303 300 307 308 311 309 308 307 303 301 300 297 296 296 288 292 293 296 297 301 304
308 309 308 309 308 308 307 307 307 307 308 308 308 308 307 309 308 309 307 302 297 298 301 296 297 298 300 307 311 307 308 309 306 302 293 296 293 290 293 297 297 296 295 294 298 302 302
308 307 308 308 308 307 308 308 308 308 308 308 309 309 309 309 309 309 305 295 296 301 294 301 301 301 305 307 300 304 309 302 298 292 295 291 290 296 295 296 295 294 294 294 298 302 302
308 307 307 307 307 308 308 309 309 309 309 309 309 309 309 309 309 304 300 298 304 304 293 296 301 299 302 303 299 301 306 303 295 292 292 288 291 295 295 294 293 294 292 293 295 300 302
307 307 306 306 307 308 307 308 309 309 309 309 308 309 309 308 302 301 297 303 306 304 286 291 296 300 302 303 297 306 307 304 300 292 293 290 294 292 293 293 295 291 296 295 294 296 292
307 306 306 306 305 306 308 308 308 309 309 308 308 307 308 308 301 296 300 304 305 301 277 295 296 307 304 299 301 301 307 303 297 297 296 291 291 290 291 293 296 293 297 297 296 294 294
306 306 306 306 307 307 307 307 308 308 307 307 308 308 307 304 303 302 304 304 302 287 279 288 297 296 296 298 301 303 301 304 303 299 299 294 297 293 293 295 297 298 296 296 296 295 288
306 305 306 306 306 306 306 307 307 308 307 307 308 308 303 304 297 303 303 299 287 281 295 287 290 296 295 294 298 297 296 295 294 290 291 294 292 295 296 292 296 297 294 287 286 286 286
306 305 306 305 305 306 306 306 306 307 306 306 306 305 302 304 305 305 301 293 282 289 291 294 293 294 292 297 296 295 294 292 295 295 292 288 285 292 296 293 291 294 294 288 281 283 286
305 305 305 305 304 304 305 305 306 306 305 305 304 302 306 306 306 304 297 288 287 291 294 292 295 291 292 296 295 294 293 293 295 296 291 288 288 296 296 297 297 293 291 296 291 291 288
305 305 305 305 304 304 304 304 306 307 306 305 300 299 303 308 307 301 295 288 292 296 297 293 288 294 291 293 292 292 292 296 295 298 297 294 287 295 296 297 297 296 298 290 292 284 283
305 304 304 305 305 305 304 304 306 306 305 304 300 298 304 309 308 299 288 288 291 297 299 294 290 293 295 292 292 291 291 295 298 298 298 296 293 292 295 294 293 294 292 293 294 293 286
305 304 304 305 306 305 305 305 306 305 305 301 298 291 307 308 295 295 289 291 295 296 300 295 295 297 297 297 292 292 292 296 300 300 295 298 296 289 292 298 299 298 295 296 290 289 293
304 304 304 304 306 305 305 304 305 305 305 298 294 294 305 305 286 287 292 293 295 295 296 295 294 298 301 298 292 295 296 300 301 300 299 300 294 289 291 296 296 295 297 298 299 298 293
304 304 304 304 305 305 305 304 304 305 305 298 294 288 295 297 296 290 289 290 290 297 296 297 298 300 299 298 301 298 297 302 300 301 307 304 296 294 290 293 297 294 295 297 297 295 294
304 304 304 303 304 304 305 306 304 305 305 298 293 289 291 286 289 290 291 290 289 289 295 298 296 296 295 295 297 298 300 300 300 305 301 302 295 298 299 299 300 299 295 296 295 296 293
303 304 303 303 304 304 305 305 305 305 305 297 290 289 291 289 291 290 290 289 289 291 292 293 293 295 297 296 298 297 300 301 299 302 301 302 298 300 297 299 299 297 298 297 297 298 300
303 303 303 303 303 303 304 305 306 305 305 297 297 297 292 290 289 289 289 289 290 292 295 296 295 294 298 300 304 305 307 306 306 303 300 301 300 298 293 298 298 295 298 299 300 301 302
303 303 303 303 303 302 303 304 305 306 305 301 299 295 291 286 288 288 289 291 291 292 292 296 298 297 302 306 310 308 306 305 306 304 303 300 300 299 295 296 287 298 302 303 301 300 302
303 303 303 302 303 303 303 305 305 306 306 302 300 296 291 285 289 289 290 291 293 296 294 294 298 300 303 304 300 296 298 299 301 302 303 302 301 295 293 292 294 297 300 301 301 298 303
303 303 302 302 302 302 303 305 305 306 306 302 300 301 295 288 289 291 290 292 290 291 293 296 300 303 303 302 299 288 290 295 295 297 303 302 302 300 293 290 287 299 303 305 304 296 305
303 303 302 302 302 302 304 305 306 306 306 304 300 301 296 288 293 294 290 290 295 292 291 294 296 297 304 296 293 292 292 298 294 294 295 297 296 295 292 293 294 300 303 305 295 298 306
302 302 301 302 302 302 303 304 305 306 306 305 300 301 297 291 293 295 297 294 295 293 291 295 295 297 297 290 292 294 294 297 297 298 296 296 295 295 294 292 290 304 303 298 303 306 305
302 302 301 301 302 302 302 304 305 306 306 306 298 300 300 293 293 300 300 300 298 297 295 298 295 297 297 293 294 295 295 299 298 293 300 294 299 297 297 297 299 301 303 304 306 302 300